Regional Weather Roundup
Issued by NWS Little Rock, AR

Home | Current Version | Previous Version | Text Only | Print | Product List | Glossary Off
Versions: 1 2 3 4 5 6 7 8 9 10 11 12 13 14 15 16 17 18 19 20 21 22 23 24 25 26 27 28 29 30 31 32 33 34 35 36 37 38 39 40 41 42 43 44 45 46 47 48 49 50

000
ASUS44 KLZK 041505
RWRLZK

WEATHER ROUNDUP FOR ARKANSAS
NATIONAL WEATHER SERVICE LITTLE ROCK AR
1000 AM CDT FRI SEP 04 2015

NOTE: "FAIR" INDICATES FEW OR NO CLOUDS BELOW 12,000 FEET WITH NO
SIGNIFICANT WEATHER AND/OR OBSTRUCTIONS TO VISIBILITY.

ARZ001-003-010-029-041600-
NORTHWEST ARKANSAS

CITY           SKY/WX    TMP DP  RH WIND       PRES   REMARKS
FAYETTEVILLE   SUNNY     77  72  84 CALM      30.05S
FORT SMITH     SUNNY     81  69  67 E6        30.00S
HARRISON       MOSUNNY   82  70  66 S9        30.07R HX  86
BENTONVILLE    MOSUNNY   81  66  61 S10       30.06R
ROGERS         MOSUNNY   80  70  71 S7        30.07R
SILOAM SPGS    SUNNY     81  66  61 S8        30.03S
HIGHFILL       SUNNY     80  71  74 S9        30.05R
$$

ARZ004-005-016-041600-
NORTH CENTRAL ARKANSAS

CITY           SKY/WX    TMP DP  RH WIND       PRES   REMARKS
BATESVILLE     SUNNY     84  72  65 CALM      30.04S HX  89
FLIPPIN        MOSUNNY   79  66  65 SE3       30.04R
MTN HOME       MOSUNNY   81  70  69 S5        30.05R
$$

ARZ040-041-041600-
WEST CENTRAL ARKANSAS

CITY           SKY/WX    TMP DP  RH WIND       PRES   REMARKS
MENA           SUNNY     81  70  69 CALM      30.03S
MOUNT IDA      SUNNY     84  69  60 CALM      30.00S HX  88
$$

ARZ009-017-025-026-028-041600-
NORTHEAST ARKANSAS

CITY           SKY/WX    TMP DP  RH WIND       PRES   REMARKS
JONESBORO      SUNNY     84  73  69 E3        30.03R HX  90
NEWPORT        SUNNY     85  73  67 CALM      30.04S HX  91
WALNUT RIDGE   SUNNY     84  72  65 E3        30.03S HX  89
BLYTHEVILLE    SUNNY     85  74  69 E5        30.03S HX  92
$$

ARZ022-023-033-042-044-041600-
CENTRAL ARKANSAS

CITY           SKY/WX    TMP DP  RH WIND       PRES   REMARKS
LITTLE ROCK    MOSUNNY   86  70  58 SE5       30.01S HX  90
N LITTLE ROCK  MOSUNNY   85  73  65 E5        30.01S HX  91
JACKSONVILLE   SUNNY     85  71  61 E3        30.01S HX  90
SEARCY         SUNNY     85  72  65 CALM      30.04S HX  91
HOT SPRINGS    SUNNY     84  68  58 SE5       30.01S HX  87
RUSSELLVILLE   SUNNY     84  69  60 VRB3      30.01S HX  88
$$

ARZ036-041600-
EAST ARKANSAS

CITY           SKY/WX    TMP DP  RH WIND       PRES   REMARKS
WEST MEMPHIS   SUNNY     85  75  72 CALM      30.02R HX  93
$$

ARZ050-053-066-070-073-041600-
SOUTHWEST ARKANSAS

CITY           SKY/WX    TMP DP  RH WIND       PRES   REMARKS
ARKADELPHIA    FAIR      86  72  62 CALM      30.00F HX  92
CAMDEN         MOSUNNY   82  72  69 CALM      30.00S HX  87
TEXARKANA      SUNNY     84  72  67 VRB6      30.00S HX  89
EL DORADO      MOSUNNY   84  72  67 SW6       30.01S HX  89
DE QUEEN       SUNNY     82  71  69 CALM      29.98S HX  86
$$

ARZ056-057-069-041600-
SOUTHEAST ARKANSAS

CITY           SKY/WX    TMP DP  RH WIND       PRES   REMARKS
PINE BLUFF     SUNNY     84  72  67 S5        30.01S HX  89
STUTTGART      SUNNY     84  70  61 SE6       30.01S HX  88
MONTICELLO     SUNNY     86  72  62 CALM      30.00S HX  92

$$




USA.gov is the U.S. government's official web portal to all federal, state and local government web resources and services.